Location: ?
(35.6144°N, 139.6873°E)
Time: 18:02:17
(UTC+00:00)

Daily predictions for brighter satellites

Satellite Brightness Start Highest point End
(mag) Time Altitude Azimuth Time Altitude Azimuth Time Altitude Azimuth
Atlas Centaur 2 4.2 18:07:53 30° SE 18:07:53 30° SE 18:13:48 10° E
Cosmos 2369 Rocket 2.7 18:43:55 54° NE 18:44:21 56° ENE 18:49:55 10° SE
Cosmos 1943 3.9 18:51:29 46° NNE 18:51:29 46° NNE 18:55:24 10° NNE
ISS -0.5 18:51:51 14° E 18:51:51 14° E 18:52:35 10° ENE
USA 267 3.4 18:59:30 10° SE 19:06:00 71° NE 19:09:09 33° NNW
Aurora 2 Rocket 4.5 19:07:27 30° S 19:07:27 30° S 19:11:44 10° SE
Cosmos 2263 4.5 19:05:21 18° NNW 19:09:33 65° ENE 19:15:07 10° SSE
H-2A R/B 3.2 19:05:15 10° NNE 19:09:40 58° E 19:10:52 42° SSE
Meteor 1-31 Rocket 4.5 19:06:26 10° NNE 19:08:18 27° NNE 19:08:18 27° NNE
NOSS 3-3 (A) 4.1 19:09:15 36° S 19:11:33 64° ESE 19:17:45 10° NE
NOSS 3-3 (C) 4.1 19:09:15 35° S 19:11:38 63° ESE 19:17:51 10° NE
Cosmos 1140 Rocket 3.5 19:16:33 62° NNW 19:16:33 62° NNW 19:21:11 10° NNE
Cosmos 1153 Rocket 4.3 19:14:34 10° N 19:20:42 75° W 19:26:48 10° S
Lacrosse 5 2.4 19:26:01 41° SSW 19:26:01 41° SSW 19:29:46 10° SSE
Cosmos 1727 Rocket 4.0 19:25:46 51° W 19:26:01 51° W 19:32:00 10° N
Cosmos 1954 Rocket 3.9 19:26:44 40° SSW 19:28:41 80° WNW 19:34:02 10° NNE
Cosmos 2173 Rocket 4.1 19:25:00 10° N 19:31:15 75° E 19:37:23 10° S
Cosmos 1805 Rocket 3.9 19:30:50 10° N 19:35:08 63° E 19:39:27 10° SSE
BREEZE-M DEB (TANK) 3.4 19:34:47 34° WSW 19:37:43 76° NW 19:40:56 10° NE
Cosmos 1400 Rocket 3.2 19:36:51 10° S 19:40:49 64° E 19:44:52 10° NNE
Meteor 2-3 Rocket 4.1 19:35:39 10° NNW 19:41:00 40° W 19:46:20 10° SSW
Cosmos 1943 Rocket 3.1 19:43:27 27° SW 19:43:27 27° SW 19:46:37 10° SSW
DELTA 2 R/B (1) 3.7 19:40:13 41° WNW 19:42:01 62° N 19:47:33 10° ENE
Cosmos 1000 Rocket 4.4 19:43:26 10° SSW 19:49:31 63° W 19:55:42 10° N
CZ-2C R/B 3.5 19:46:02 10° N 19:49:30 27° NW 19:49:30 27° NW
Cosmos 2100 Rocket 3.9 19:48:12 10° NNW 19:54:18 64° W 20:00:20 10° S
Cosmos 1459 Rocket 3.9 19:48:11 10° N 19:54:23 71° W 20:00:39 10° S
Cosmos 921 Rocket 3.2 19:53:59 29° NW 19:55:43 44° W 19:59:46 10° S
Atlas Centaur 2 3.5 19:50:30 22° WSW 19:55:53 55° S 20:04:11 10° E
CZ-4B R/B 3.2 19:52:42 10° N 19:55:29 35° NW 19:55:29 35° NW
Cosmos 1633 2.9 20:01:09 10° NNW 20:04:35 41° W 20:08:00 10° SSW
Cosmos 1741 Rocket 4.1 20:00:20 10° SSW 20:05:34 83° ESE 20:10:52 10° NNE
FENGYUN 3A 3.6 20:01:50 10° N 20:07:16 76° WNW 20:12:41 10° SSW
Shenzhou-11 Module 3.7 20:09:07 16° NNW 20:09:54 18° N 20:11:49 10° NE
Cosmos 2123 Rocket 4.0 20:07:03 10° SSW 20:13:19 69° W 20:19:37 10° N
Cosmos 1484 Rocket 3.6 20:11:08 10° N 20:14:39 31° WNW 20:18:11 10° SW
Cosmos 1656 Rocket 3.8 20:09:23 10° NNW 20:14:55 54° WSW 20:20:25 10° S
Cosmos 1725 Rocket 4.0 20:09:18 10° N 20:15:37 89° W 20:21:56 10° S
Okean O Rocket 2.2 20:11:20 10° NNE 20:15:38 58° E 20:19:54 10° S
Cosmos 1818 4.3 20:14:22 10° SSW 20:19:39 56° ESE 20:24:58 10° NE
Cosmos 2061 Rocket 4.0 20:17:12 10° NNW 20:23:18 58° W 20:29:20 10° S
Cosmos 1515 Rocket 4.3 20:19:38 10° S 20:23:59 57° E 20:28:20 10° NNE
GEOS 3 Rocket 4.1 20:20:01 10° NNE 20:24:58 41° NW 20:29:56 10° WSW
Cosmos 1633 Rocket 3.0 20:21:45 10° N 20:26:09 83° W 20:30:32 10° S
COSMO-SKYMED 1 2.7 20:21:58 10° S 20:26:10 49° W 20:30:23 10° NNW
ISS -2.8 20:24:50 19° W 20:26:36 32° NW 20:29:39 10° NNE
Cosmos 1862 3.6 20:23:43 10° NNW 20:27:29 42° W 20:31:14 10° SSW
Meteor 2-20 4.5 20:21:32 10° S 20:27:36 89° E 20:33:42 10° N
Cosmos 2369 Rocket 3.6 20:25:51 15° WNW 20:27:49 17° W 20:31:22 10° SW
MOS 1-B 4.4 20:24:25 10° N 20:30:07 59° WNW 20:35:49 10° SSW
Cosmos 1864 Rocket 4.5 20:26:17 10° NNW 20:32:21 63° W 20:38:27 10° S
Cosmos 1666 Rocket 3.6 20:28:42 10° NNW 20:33:00 53° W 20:37:14 10° S
Cosmos 1763 Rocket 4.2 20:27:53 10° N 20:33:09 60° ENE 20:38:21 10° SSE
SL-08 R/B 4.5 20:28:16 10° NNW 20:34:13 58° W 20:40:09 10° S
Cosmos 1802 Rocket 4.5 20:29:50 10° NNW 20:35:43 39° W 20:41:33 10° SSW
Cosmos 1238 Rocket 4.0 20:31:58 10° NNW 20:36:44 33° W 20:40:45 10° SSW
Cosmos 1606 2.6 20:33:09 10° S 20:36:57 82° W 20:40:44 10° N
ALOS 3.0 20:33:42 10° N 20:37:48 31° WNW 20:41:52 10° SW
Cosmos 1346 Rocket 3.0 20:36:19 10° N 20:40:12 74° E 20:44:04 10° SSE
SL-8 R/B 3.8 20:39:09 10° WSW 20:43:54 61° NNW 20:48:40 10° NE
H-2A R/B 4.5 20:42:47 10° NW 20:44:37 12° WNW 20:46:27 10° W
USA 267 4.2 20:43:56 10° S 20:49:15 27° SW 20:54:37 10° WNW
Cosmos 1447 Rocket 4.4 20:45:09 10° SSW 20:51:15 71° W 20:57:24 10° N
Meteor 2-20 Rocket 4.4 20:46:33 10° S 20:52:38 77° W 20:58:43 10° N
NOAA 6 4.2 20:48:30 10° N 20:53:29 50° WNW 20:58:25 10° SSW
CZ-4B R/B 3.2 20:49:18 10° N 20:54:30 59° WNW 20:59:40 10° SSW
